GW1115 Weather Reports


time (UTC)temp
F
wind
direction
speed
knots
gust
knots
rain 1hr
in
rain 24hr
in
rain mn
in
humidity
%
barometer
mb
20260510033012 56 158 3.5 6.1 0.00 0.05 0.05 80 1012.2
20260510031551 56 164 2.6 7.8 0.00 0.05 0.05 80 1012.0
20260510030025 56 158 3.5 7.0 0.00 0.05 0.05 79 1012.0
20260510024523 56 175 3.5 7.0 0.00 0.05 0.05 79 1012.0
20260510023048 56 153 2.6 6.1 0.00 0.05 0.05 79 1012.0
20260510021531 57 161 3.5 7.0 0.00 0.05 0.05 79 1011.7
20260510020056 57 154 2.6 7.0 0.00 0.05 0.05 79 1011.5
20260510014536 57 148 3.5 4.3 0.00 0.05 0.05 79 1011.3
20260510013010 57 146 2.6 6.1 0.00 0.05 0.05 78 1011.2
20260510011558 58 149 2.6 5.2 0.00 0.05 0.05 77 1011.0
20260510010026 58 157 2.6 6.1 0.00 0.05 0.05 75 1010.9
20260510004602 59 157 2.6 5.2 0.00 0.05 0.05 73 1010.7
20260510004503 59 157 1.7 5.2 0.00 0.05 0.05 73 1010.7
20260510003058 60 182 2.6 5.2 0.00 0.05 0.05 71 1010.5
20260510001519 61 162 4.3 7.8 0.00 0.05 0.05 70 1010.3
20260510000055 62 173 5.2 9.6 0.00 0.05 0.05 68 1010.2
20260509234538 63 196 4.3 7.0 0.00 0.05 0.05 67 1010.1
20260509233012 63 200 6.1 10.4 0.00 0.05 0.05 66 1009.9
20260509231553 63 192 5.2 13.0 0.00 0.05 0.05 65 1010.1
20260509230031 64 150 7.0 13.0 0.00 0.05 0.05 65 1010.2
20260509224507 64 154 7.8 12.2 0.00 0.05 0.05 65 1010.3
20260509223039 64 170 5.2 9.6 0.00 0.05 0.05 64 1010.4
20260509221519 64 207 7.8 14.8 0.00 0.05 0.05 64 1010.3
20260509220047 64 175 7.0 11.3 0.00 0.05 0.05 65 1010.5
20260509214529 64 213 7.8 13.0 0.00 0.05 0.05 64 1010.5
20260509213003 63 179 9.6 13.9 0.00 0.05 0.05 67 1010.4
20260509211541 63 169 7.0 14.8 0.00 0.05 0.05 66 1010.3
20260509210021 64 201 5.2 10.4 0.00 0.05 0.05 68 1010.3
20260509204554 63 170 7.0 13.0 0.00 0.05 0.05 67 1010.5
20260509203033 62 223 2.6 8.7 0.00 0.05 0.05 67 1010.5
20260509201557 63 199 7.0 13.0 0.00 0.05 0.05 67 1010.6
20260509201502 63 206 7.8 13.0 0.00 0.05 0.05 66 1010.6
20260509200032 63 162 3.5 11.3 0.00 0.05 0.05 68 1010.8
20260509194513 63 184 5.2 11.3 0.00 0.05 0.05 67 1010.8
20260509193042 63 209 5.2 12.2 0.00 0.05 0.05 71 1010.8
20260509191523 61 188 4.3 11.3 0.00 0.05 0.05 73 1010.9
20260509190051 60 191 2.6 7.8 0.00 0.05 0.05 74 1010.9
20260509184535 60 189 4.3 7.0 0.00 0.05 0.05 74 1011.0
20260509183018 59 209 3.5 7.0 0.00 0.05 0.05 75 1010.8
20260509181557 58 200 1.7 5.2 0.00 0.05 0.05 78 1011.0
20260509180022 57 200 3.5 6.1 0.00 0.05 0.05 79 1011.0
20260509174507 57 184 1.7 4.3 0.00 0.05 0.05 80 1011.0
20260509173036 56 200 2.6 4.3 0.00 0.05 0.05 81 1011.1
20260509171514 56 199 2.6 4.3 0.00 0.05 0.05 81 1011.3
20260509170043 56 181 0.9 3.5 0.00 0.05 0.05 83 1011.2
20260509164522 56 171 3.5 5.2 0.00 0.05 0.05 83 1011.1
20260509163051 56 155 3.5 6.1 0.00 0.05 0.05 85 1011.0
20260509161533 55 174 1.7 4.3 0.00 0.05 0.05 86 1011.4
20260509160100 54 175 2.6 4.3 0.00 0.05 0.05 86 1011.5
20260509160000 55 175 2.6 4.3 0.00 0.05 0.05 86 1011.6
20260509154538 54 158 2.6 5.2 0.00 0.05 0.05 87 1011.6
20260509153012 53 169 2.6 5.2 0.00 0.05 0.05 88 1011.8
20260509151554 53 161 1.7 4.3 0.00 0.05 0.05 89 1012.0
20260509150024 53 161 2.6 5.2 0.00 0.05 0.05 89 1011.9
20260509144558 52 148 0.9 5.2 0.00 0.05 0.05 91 1011.8
20260509144506 52 148 0.9 5.2 0.00 0.05 0.05 91 1011.8
20260509143037 52 147 2.6 4.3 0.00 0.05 0.05 91 1011.7
20260509141514 52 165 3.5 6.1 0.00 0.05 0.05 90 1011.8
20260509140054 52 145 0.9 4.3 0.00 0.05 0.05 92 1011.9
20260509134533 51 148 1.7 5.2 0.00 0.05 0.05 93 1012.0
20260509133006 51 149 3.5 5.2 0.01 0.05 0.05 94 1011.9
20260509131545 51 165 0.0 1.7 0.01 0.05 0.05 96 1012.0
20260509130023 50 165 0.0 1.7 0.01 0.05 0.05 96 1012.1
20260509124608 50 165 0.0 1.7 0.02 0.05 0.05 96 1012.3
20260509124502 50 165 0.0 1.7 0.02 0.05 0.05 96 1012.3
20260509123038 50 165 2.6 4.3 0.01 0.04 0.04 96 1012.4
20260509121525 50 165 0.0 2.6 0.01 0.04 0.04 96 1012.5
20260509120052 50 142 0.0 2.6 0.01 0.04 0.04 95 1012.6
20260509114532 50 139 0.0 2.6 0.01 0.03 0.03 95 1012.5
20260509113004 49 139 0.0 0.9 0.01 0.03 0.03 95 1012.3
20260509111540 49 139 1.7 3.5 0.01 0.03 0.03 95 1012.3
20260509110020 49 128 1.7 3.5 0.01 0.03 0.03 95 1012.3
20260509104555 49 81 1.7 3.5 0.01 0.02 0.02 94 1012.2
20260509103032 49 30 0.9 1.7 0.02 0.02 0.02 93 1012.2
20260509101515 49 32 0.0 3.5 0.02 0.02 0.02 92 1012.1
20260509100046 50 11 0.0 1.7 0.02 0.02 0.02 91 1012.4
20260509094525 50 9 0.0 2.6 0.01 0.01 0.01 89 1012.5
20260509093059 50 259 0.0 2.6 0.00 0.00 0.00 88 1012.8
20260509091537 51 257 0.9 3.5 0.00 0.00 0.00 86 1012.9
20260509090105 52 261 1.7 5.2 0.00 0.00 0.00 84 1012.8
20260509090006 52 259 1.7 5.2 0.00 0.00 0.00 83 1012.8
20260509084549 53 239 3.5 16.5 0.00 0.00 0.00 79 1012.9
20260509083018 53 213 8.7 13.9 0.00 0.00 0.00 75 1013.0
20260509081554 52 203 1.7 7.0 0.00 0.00 0.00 77 1012.6
20260509080031 52 134 3.5 7.0 0.00 0.00 0.00 78 1012.3
20260509074600 53 157 6.1 8.7 0.00 0.00 0.00 78 1012.0
20260509074503 53 139 5.2 10.4 0.00 0.00 0.00 77 1012.1
20260509073039 53 160 7.8 14.8 0.00 0.00 0.00 74 1012.0
20260509071513 52 161 8.7 15.6 0.00 0.00 0.00 76 1012.0
20260509070044 50 171 1.7 5.2 0.00 0.00 0.00 83 1011.9
20260509064525 50 148 0.9 1.7 0.00 0.00 0.00 84 1011.8
20260509063047 50 148 0.0 1.7 0.00 0.00 0.00 85 1011.9
20260509061528 51 148 0.0 1.7 0.00 0.00 0.00 84 1012.1
20260509060056 51 148 0.9 4.3 0.00 0.00 0.00 81 1012.1
20260509054538 50 150 2.6 5.2 0.00 0.00 0.00 79 1012.3
20260509053107 51 153 0.0 1.7 0.00 0.00 0.00 83 1012.5
20260509053011 51 153 0.0 1.7 0.00 0.00 0.00 83 1012.5
20260509051547 51 153 0.0 1.7 0.00 0.00 0.00 83 1012.6
20260509050018 51 153 0.0 1.7 0.00 0.00 0.00 83 1012.8
20260509044558 51 153 0.0 1.7 0.00 0.00 0.00 83 1012.8
20260509043033 52 153 0.9 1.7 0.00 0.00 0.00 82 1013.0
20260509041512 52 153 0.0 0.0 0.00 0.00 0.00 82 1013.2
20260509040043 52 153 0.0 0.0 0.00 0.00 0.00 80 1013.2
20260509034528 53 153 0.0 0.0 0.00 0.00 0.00 81 1013.2